Timeline UpdatesTrip UpdatesNews PostsPvt PostsTravel TipsAdmin PostsConv PostsFollowed PostsChat RequestsBlog PostsPNR Posts

Disclaimer
Search
 
 
Wed Aug 20, 2014 20:05:23 ISTHomeTrainsΣChainsAtlasPNRForumGalleryNewsFAQTripsMembersLoginFeedback
No Recent News for this Train
Other Trains in the News **new
Latest...
Diverted via Moradabad-Ghaziabad-Delhi Jn.-Panipat-Kurukshetra on 15/6/14 #1134752.
Sat Jun 14, 2014 (02:17PM)
⇐ Return Journey: Train# 15210

15209/Jan Seva Express (UnReserved)

Dec 27 2013 (6:25PM)
Change Departure Station:
Change Arrival Station:
Post a Train Travel TipPost a Train Travel Tip **new
Post a Comment/Question/Picture/VideoPost a Comment/Question/Picture/Video
Inaugural Run
Sat Dec 12, 2009
Pantry/Catering
✕ NO Pantry Car
✕ NO Catering
RSA - Rake Sharing
RSA with 15275/76...shc bju express
Rake/Coach Composition
LOCO-SLR-GEN-GEN-GEN-GEN-GEN-GEN-GEN-GEN-GEN-GEN-GEN-GEN-GEN-GEN-GEN-GEN-GEN-GEN-GEN-GEN-SLR
Loco
SHC-MB: GD WDM-3A MB-ASR: GZB WAP5/WAP7
News    PNR    Forum    Time-Table    Availability    Fare Chart    Map    Arr/Dep History    Trips    Gallery    ΣChains    X/O    Timeline    
Travel Time: 28h 47m    38 halts    Distance: 1322 km    Avg Speed: 45 km/hr
Type: Mail/Express
Zone: ECR/East Central
Departs @ 08:45 (Avg 38m late)
Platform# 1
SMTWTFS
Saharsa Junction/SHC 
Arrives @ 13:32 +1 night (Avg 1h 47m late)
Platform# 1
SMTWTFS
Sirhind Junction/SIR 

38 halts. 224 intermediate Stations between Saharsa Junction and Sirhind Junction

Show ALL intermediate Stations  Show Old Time-Table

#CodeStation NameX/OArrivesAvgDepartsAvgHaltPFDay#KmSpeedElevZoneAddress
1SHC»Saharsa Junction (3)»  -08:45+38110.07346mECRSaharsa, Bihar
2SBVSimri Bakhtiyarpur (1)  08:59+4509:01+472m1117.14942mECRBakhtiarpur, Bihar
3KFAKoparia (1)  09:09+4009:11+422m1123.62242mECRBihar, Bihar
4MNEMansi Junction (3)  10:03+4110:05+442m3142.55343mECRMansi, Bihar
5KGGKhagaria Junction (3)X  10:15+4710:17+502m1151.35843mECRKhagaria, Bihar
6LKNLakhminia  10:40+5010:42+502m--173.48245mECRBegusarai, Bihar
7BGSBegu Sarai (3)X  10:55+5510:57+562m1191.229 ECRBegusarai, Bihar
8BJUBarauni Junction (9)X  11:25+1:0011:35+1:0310m--1104.65249mECRBegusarai, Bihar
9BCABachwara Junction  11:54+1:1311:56+1:172m--1121.05449mECRBegusarai, Bihar
10MOGMohiuddinnagar (1)  12:19+1:2312:21+1:262m--1141.64154mECRSamastipur, Bihar
11SPPShahpur Patoree (2)  12:40+1:2312:42+1:302m--1154.56850mECRSamastipur, Bihar
12MNOMehnar RoadX  12:49+1:3312:51+1:342m--1162.44054mECRMehnar Road, Bihar
13DESDesari (2)O  13:06+1:3513:08+1:362m--1172.44750mECRVaishali, Bihar
14AYRNAkshaywat Rai Nagar  13:20+1:4113:22+1:422m--1181.81752mECRVaishali, Bihar
15HJPHajipur Junction (3)X  14:00+1:2914:05+1:415m--1192.33355mECR06224-272230, Bihar
16SEESonpur Junction (4)X  14:15+1:4214:20+1:425m31197.84656mECRSaran, Bihar
17DGADighwara (2)X  14:50+1:3514:52+1:362m--1220.93260mECR06158-281240, Bihar
18CPRChhapra Junction (6)  15:50+1:3216:00+1:3110m--1251.88058mNERDistt: Saran, Bihar
19EKMAEkma (3)X  16:21+1:4216:23+1:422m--1279.75864mNERSaran, Bihar
20DDADuraundha Junction (3)  16:39+1:4416:41+1:452m--1295.25664mNERDistt: Siwan, Bihar
21SVSiwan Junction (4)  17:00+1:3817:05+1:385m--1313.08570mNERSiwan, Bihar
22MWMairwa (2)X17:20+1:5117:22+1:512m--1334.34373mNERMairwa, Bihar
23BTTBhatni Junction (5)  18:00+1:4118:05+1:415m--1361.83573mNERDeoria, Uttar Pradesh
24DEOSDeoria Sadar (3)X  18:41+1:3118:46+1:315m--1382.54379mNERDeoria- 274001, Uttar Pradesh
25GKPGorakhpur Junction (10)X  19:55+1:4120:10+1:4415m--1431.76984mNERGorakhpur 273001, Uttar Pradesh
26BSTBasti (4)  21:05+2:0121:07+2:042m11495.16090mNERBasti 272001, Uttar Pradesh
27GDGonda Junction (3)X  22:35+1:5722:45+1:5410m11583.562110mNERGonda 271001, Uttar Pradesh
28BUWBurhwal Junction (3)  23:45+1:5823:50+1:585m31645.843119mNERBarabanki, Uttar Pradesh
29SCCSitapur Cantt. (2)X  02:05+1:3702:15+1:4010m--2743.345141mNRSitapur, Uttar Pradesh
30MINJMaikalGanj03:11+1:4603:12+1:471m--2784.858149mNRNational Highway 24, Uttar Pradesh
31BEBareilly Junction (4)X  05:15+1:3805:25+1:4110m12903.874174mNRBareilly, Uttar Pradesh
32RMURampur Junction (3)X  06:16+2:0106:18+2:022m--2966.939190mNRRampur, Uttar Pradesh
33MBMoradabad Junction (7)X07:00+2:0507:30+1:5930m32994.272201mNRMoradabad, Uttar Pradesh
34NBDNajibabad Junction (3)  08:52+1:4808:55+1:493m221093.144269mNRNajibabad, Uttar Pradesh
35LRJLaksar Junction (4)XO  09:52+1:2109:54+1:222m--21135.044238mNRLaksar, Uttarakhand
36SRESaharanpur Junction (6)  11:05+1:2411:10+1:315m521187.567276mNRSaharanpur, Uttar Pradesh
37JUDYamunanagar-Jagadhri (3)X  11:37+1:4311:38+1:451m321217.659275mNRYamunanagar, Haryana
38UMBAmbala Cantt. Junction (7)X  12:30+1:4512:40+1:4610m221268.767278mNRAmbala 133001, Haryana
39RPJRajpura Junction (3)X  13:05+1:5213:07+1:522m121296.760272mNRNH-1, Punjab
40SIR•Sirhind Junction (3)•O  13:32+1:4713:34+1:482m121321.536271mNRSirhind, Punjab
41DDLDhandari Kalan (3)X  15:04+5315:06+552m121374.850254mNRDhandari Kalan, Punjab
42LDHLudhiana Junction (7)X  15:15+1:2615:25+1:2810m321382.334246mNRLudhiana 141001, Punjab
43PHRPhillaur Junction (3)  15:48+1:0415:50+1:042m221395.375246mNRPhillaur, Punjab
44PGWPhagwara Junction (3)  16:08+1:0716:10+1:072m221417.963245mNRPhagwara, Punjab
45JUCJalandhar City Junction (5)  16:30+1:1816:35+1:185m121439.149239mNRJalandhar 144001, Punjab
46BEASBeas Junction (2)X  17:19+4317:21+462m121475.248238mNRBeas, Punjab
47ASRAmritsar Junction (5)  18:15+52-521518.2-233mNRAmritsar 143002, Punjab
Scroll to Top
Scroll to Bottom